Location: Arborea
(39.7744°N, 8.5819°E)
Time: 23:32:20
(UTC+00:00)

FENGYUN 1C DEB - Visible Passes

Search period start: 10 August 2022 00:00
Search period end: 20 August 2022 00:00
Orbit: 842 x 858 km, 98.7° (Epoch: 10 August)

Date Brightness Start Highest point End Pass type
(mag) Time Alt. Az. Time Alt. Az. Time Alt. Az.
10 Aug ? 19:13:48 10° SW 19:17:33 19° W 19:21:21 10° NW visible
11 Aug ? 19:01:06 10° SSW 19:05:29 24° W 19:09:53 10° NW visible
12 Aug ? 18:48:37 10° SSW 18:53:25 30° W 18:58:16 10° NW visible
17 Aug ? 19:32:27 10° WSW 19:34:43 12° W 19:36:59 10° WNW visible
18 Aug ? 19:19:13 10° SW 19:22:36 16° W 19:26:00 10° NW visible
19 Aug ? 19:06:24 10° SW 19:10:31 21° W 19:14:38 10° NW visible
